Location: Hermaringen
(48.5952°N, 10.2585°E)
Time: 00:24:13
(UTC+00:00)

Altair - Pass Details

Date: 23 February 2026
Orbit: 1502 x 1682 km, 47.2° (Epoch: 9 March)

Event Time Altitude Azimuth Distance (km) Brightness Sun altitude
Rises 00:53:43 0° 194° (SSW) 4,627 - -47.7°
Reaches altitude 10° 00:57:28 10° 181° (S) 3,644 - -47.4°
Maximum altitude 01:04:15 24° 132° (SE) 2,726 - -46.8°
Exits shadow 01:07:33 19° 104° (ESE) 2,986 9.1 -46.5°
Drops below altitude 10° 01:11:04 10° 84° (E) 3,685 9.8 -46.1°
Sets 01:14:52 0° 71° (ENE) 4,691 10.6 -45.7°
